Location: Wien
(48.2082°N, 16.3738°E)
Time: 21:17:46
(UTC+02:00)

JY1SAT - Pass Details

Date: 17 May 2025
Orbit: 497 x 509 km, 97.5° (Epoch: 12 June)

Event Time Altitude Azimuth Distance (km) Brightness Sun altitude
Exits shadow 21:44:48 11° 167° (SSE) 1,657 ? -10.5°
Maximum altitude 21:48:22 86° 254° (WSW) 521 ? -10.9°
Drops below altitude 10° 21:52:08 10° 346° (NNW) 1,745 ? -11.4°
Sets 21:54:14 0° 347° (NNW) 2,635 ? -11.6°
